Dewpoint
62 58 57 56 55 56 55 54 43 48 46 37 34 33 31 33 34 32 32 31 37 41 40 41 40 42 41 42 40 43 47 44 47 47 51 62 64 63 63 63 63 66 67 69 70 71 71 71 71 71 70 70 69 69 68 67 67 66 66 66 67 67 67 68 69 70 69 69 69 69 69 69 69 69 69 69 68 67 67 67 66 65 65 64 64 64 65 65 65 64 61 65 65 64 64 64 63
59 59 58 57 55 59 53 50 47 41 39 31 29 29 31 30 30 33 35 35 39 41 43 42 41 42 45 43 41 41 50 55 55 58 59 61 63 63 63 64 64 66 67 69 69 70 70 71 71 71 71 70 70 69 68 68 67 67 66 66 67 67 67 68 68 69 69 69 69 69 69 69 69 69 69 68 68 67 67 66 66 66 65 64 64 64 64 63 64 64 64 64 65 64 64 63 63
61 61 57 56 53 53 50 49 39 38 36 29 27 29 33 27 31 36 37 36 39 42 44 43 43 45 43 42 41 41 46 55 58 59 60 63 62 62 62 63 62 66 68 69 68 69 70 71 71 71 71 70 70 69 68 68 68 67 66 66 67 67 67 68 68 68 68 69 69 69 68 69 69 69 69 68 68 67 67 66 66 65 65 64 64 63 63 61 62 62 62 63 63 62 62 62 62
62 58 54 54 51 54 48 45 41 37 35 30 31 34 32 34 36 37 37 38 40 42 43 41 42 44 41 40 39 40 49 50 56 57 58 60 61 63 62 62 63 66 67 68 67 68 70 70 71 71 71 70 70 69 69 69 68 67 66 67 68 68 68 68 69 68 68 68 69 69 69 69 69 69 69 69 68 67 66 66 65 64 64 64 63 62 62 61 61 60 60 60 60 59 60 60 61
57 57 55 52 52 49 49 44 40 38 32 33 31 34 33 35 36 37 38 38 42 42 43 40 43 45 43 43 42 48 49 53 57 60 61 62 63 62 63 62 62 66 66 66 67 68 70 70 70 71 71 71 70 69 69 69 68 67 67 67 68 67 68 66 67 65 66 68 68 68 68 69 69 69 69 68 68 67 67 65 65 64 64 63 62 61 60 60 59 60 60 59 60 61 60 59 59
56 55 55 53 50 52 46 43 39 36 35 34 34 33 36 37 37 37 38 41 42 43 42 42 39 42 42 49 54 53 55 53 56 60 61 62 62 62 62 64 61 65 65 66 66 67 70 70 70 71 71 71 70 69 69 69 69 68 67 67 67 67 66 66 66 65 65 64 64 66 67 67 67 68 69 68 68 67 66 65 64 64 63 63 61 59 59 61 59 59 59 58 59 58 60 59 59
56 55 56 54 51 52 44 40 38 36 35 34 33 33 38 38 37 38 37 38 43 43 45 42 42 42 43 49 54 56 58 59 60 60 61 63 63 62 62 61 62 64 64 65 65 69 70 69 70 71 71 71 71 70 70 69 69 68 68 68 67 67 66 66 65 64 64 64 64 63 62 63 63 64 68 67 67 67 66 65 64 64 63 62 61 59 58 60 59 57 60 58 58 60 60 59 60
58 54 52 49 48 46 41 39 38 36 37 35 35 34 37 39 39 39 37 37 39 41 42 43 42 41 39 43 52 57 59 60 60 62 63 62 63 63 65 60 61 63 64 64 67 69 71 69 70 71 71 71 70 70 70 69 69 68 68 68 67 66 65 65 64 64 62 62 62 63 62 62 62 61 63 67 68 67 66 65 65 62 63 62 61 59 57 59 60 57 58 58 58 58 60 61 60
56 52 57 51 45 47 41 37 36 36 35 38 35 39 44 40 40 39 38 39 39 42 39 40 41 41 38 51 53 57 57 60 62 64 62 62 62 64 63 60 61 63 64 68 69 69 70 69 70 71 71 71 71 70 70 70 69 68 68 67 67 66 65 65 64 64 63 62 61 62 63 62 63 61 59 61 65 67 66 65 64 62 63 62 62 61 59 58 60 58 57 59 59 58 59 59 59
54 52 49 48 49 41 40 39 36 35 34 36 36 39 39 40 39 39 38 36 37 40 39 39 41 37 42 53 57 58 59 62 62 62 62 62 62 63 61 62 62 63 65 69 69 69 70 71 69 70 70 70 71 71 71 71 70 69 68 68 67 67 66 65 64 64 64 64 63 62 62 62 63 60 60 61 62 64 66 65 64 62 63 61 62 62 60 58 61 58 58 59 58 58 58 58 58
51 50 52 46 42 40 39 38 37 36 34 35 38 39 40 39 40 38 39 38 37 38 38 42 39 39 43 51 55 60 60 61 61 61 62 62 63 62 59 60 62 63 65 68 69 69 70 70 71 69 70 70 70 70 70 71 71 70 69 68 68 68 67 66 65 65 64 63 64 65 63 63 63 62 62 64 67 64 62 62 62 60 62 63 57 59 61 59 59 60 59 58 59 59 59 58 59
51 49 48 43 42 40 38 36 36 36 34 37 37 40 40 41 38 36 37 36 37 38 38 41 44 40 48 55 56 60 61 61 62 62 62 62 61 62 60 60 63 64 66 67 69 69 69 70 70 70 68 69 69 69 70 70 70 70 70 69 69 69 68 67 65 64 63 63 63 64 64 63 64 66 65 67 65 66 63 62 64 62 62 62 59 58 60 61 59 60 60 59 60 59 59 59 59
54 55 49 43 42 41 39 37 36 37 35 36 36 41 40 41 39 39 37 39 37 37 39 40 40 43 45 51 57 60 60 61 62 62 62 61 61 61 61 62 63 65 66 67 68 68 68 69 69 70 69 67 68 68 68 69 70 70 70 70 70 69 69 68 67 66 64 63 64 67 66 65 64 65 67 67 67 66 66 64 63 63 60 60 60 59 60 60 59 59 59 60 60 61 60 59 60
55 56 50 43 44 41 39 38 37 34 33 36 39 43 41 41 40 39 39 38 40 39 42 41 42 41 50 55 58 59 60 61 62 63 61 61 61 61 62 63 65 65 67 67 67 67 66 67 67 69 69 69 69 68 67 68 69 70 69 69 70 69 69 68 68 67 66 66 66 66 67 66 65 66 67 68 67 66 65 65 64 64 61 60 60 60 60 60 60 60 60 62 60 60 60 60 60
54 58 53 46 42 41 40 38 35 36 39 39 44 42 40 43 43 40 40 38 39 41 41 43 46 44 48 49 53 59 60 61 62 63 63 62 62 62 65 65 65 66 66 66 66 67 65 65 67 68 69 69 69 69 69 68 67 68 68 69 69 69 68 68 68 67 66 66 66 66 65 65 65 66 67 67 67 66 65 64 64 64 63 61 61 61 60 60 61 63 64 61 60 60 60 61 63
57 57 54 47 41 40 39 38 38 39 39 37 44 42 42 43 44 41 40 40 40 42 42 43 46 48 51 52 55 60 61 62 62 63 62 63 63 64 64 64 63 65 65 66 66 67 67 65 66 68 69 68 68 68 69 69 67 67 67 67 68 68 68 67 67 66 65 65 65 65 65 64 64 64 64 65 65 65 66 64 63 64 65 62 62 62 62 61 60 61 62 61 61 61 62 61 63
56 56 48 47 43 41 40 38 39 38 39 43 44 42 40 42 44 42 42 43 40 39 43 45 45 49 48 51 57 61 62 62 62 63 62 62 62 62 63 63 63 64 66 65 66 66 66 66 66 67 68 67 66 67 68 69 68 66 66 66 66 66 66 66 65 64 63 62 62 62 63 63 63 63 63 62 63 64 63 62 63 64 64 65 65 65 64 64 62 61 61 61 61 63 64 64 64
54 46 45 44 45 41 40 38 38 39 37 44 43 42 39 42 43 43 43 40 41 40 44 45 49 51 53 56 60 61 62 62 62 61 61 61 62 61 62 62 63 63 64 64 65 65 65 66 66 66 66 65 65 67 67 68 69 67 68 68 67 66 64 64 64 64 67 64 61 63 63 63 61 60 61 64 61 63 62 61 61 63 63 64 65 65 65 65 64 63 62 62 63 64 63 62 62
50 47 44 42 43 41 41 38 38 37 37 43 43 43 40 42 43 43 42 37 38 40 43 45 50 54 55 57 60 61 61 62 62 60 60 61 60 60 61 62 62 63 63 64 64 64 65 65 65 65 66 65 65 66 66 66 68 68 68 68 68 65 67 66 66 65 64 64 64 63 62 61 60 60 60 62 62 61 62 61 61 62 63 63 63 64 65 65 65 65 65 65 65 64 62 61 61
52 47 43 42 43 43 49 43 42 40 42 40 42 44 43 44 45 45 43 39 37 39 41 42 45 51 54 57 59 60 61 61 61 60 60 60 59 59 59 61 61 61 63 64 64 65 65 65 65 65 66 66 65 65 66 65 67 67 67 65 65 66 66 66 66 65 64 63 63 62 60 60 60 60 65 68 67 63 62 60 60 61 61 62 62 63 63 64 64 65 64 64 64 63 61 60 59
54 51 44 42 42 40 41 42 40 40 42 41 47 44 43 44 44 44 43 42 40 40 41 41 41 41 51 55 58 60 60 61 62 62 60 60 60 59 58 59 60 61 62 63 64 64 64 65 65 65 65 66 66 64 64 64 63 64 65 64 63 64 65 64 65 64 64 63 63 62 61 60 61 60 63 63 63 62 62 61 61 60 60 60 60 60 61 61 61 60 60 61 60 60 59 59 58
54 51 49 45 42 40 41 42 41 41 43 43 44 43 44 44 45 43 43 42 40 42 42 43 43 43 43 54 56 58 59 60 60 61 61 59 60 58 57 59 59 60 61 62 63 63 64 64 65 65 65 65 65 65 64 63 64 63 63 63 63 63 65 64 63 64 63 64 63 63 61 61 61 60 60 61 62 61 61 61 62 61 61 61 61 60 60 60 60 60 60 60 60 59 59 58 58
48 50 51 51 49 44 45 46 48 42 43 50 49 44 42 42 41 43 43 42 43 44 44 44 45 46 46 49 55 56 58 59 59 61 61 61 60 59 57 57 59 60 61 61 62 62 63 63 64 65 65 65 65 65 64 64 64 63 63 64 64 63 65 64 64 63 63 63 64 63 63 62 61 60 60 60 60 60 59 59 59 61 62 62 62 61 60 60 60 59 59 59 59 59 59 58 59
49 47 49 48 48 47 46 42 45 47 44 46 42 38 39 39 38 40 42 41 42 44 44 44 45 46 47 49 50 55 56 57 58 59 61 60 61 61 60 58 57 60 61 61 61 62 63 63 64 64 64 65 65 64 64 63 64 63 63 63 65 64 64 65 64 64 64 64 64 63 63 63 62 61 60 60 60 60 59 59 59 58 58 58 59 59 60 60 58 58 58 58 58 58 58 58 58
49 48 49 48 50 48 51 47 43 44 44 45 46 41 42 40 39 38 40 41 42 43 43 43 45 46 46 47 50 53 55 57 58 59 60 60 62 61 61 60 59 60 60 61 61 61 62 62 62 63 63 63 64 64 64 63 63 63 63 64 64 64 64 65 65 65 64 64 64 64 63 63 63 62 62 62 61 60 60 60 59 59 58 58 58 58 58 58 58 58 58 58 58 58 57 58 58
50 49 49 49 51 50 52 46 43 40 41 42 43 45 43 40 39 38 39 42 42 41 42 42 43 45 45 46 47 49 52 55 58 58 59 61 61 61 61 59 59 58 60 60 61 62 61 61 62 62 63 63 63 63 63 63 63 63 63 64 64 63 64 64 65 65 64 64 64 65 64 64 63 62 62 62 61 61 61 61 61 61 59 59 58 58 58 58 58 58 58 58 58 57 57 58 58
49 50 50 49 49 51 51 49 45 41 44 41 40 42 43 41 39 37 41 40 40 38 40 42 42 43 44 45 46 47 49 50 51 55 57 59 60 60 60 61 60 60 61 61 60 61 61 61 62 62 62 63 64 64 64 63 63 63 63 64 64 64 64 65 64 64 64 64 64 64 65 64 63 63 62 62 61 61 62 62 62 61 61 60 60 59 59 58 58 58 58 58 58 58 57 58 57
49 48 48 50 50 52 52 50 45 40 40 40 40 41 42 42 40 37 39 40 40 39 40 42 43 43 44 45 45 47 44 44 45 48 50 52 54 56 58 59 60 61 61 61 61 61 60 61 61 62 62 63 64 63 64 64 64 64 64 64 64 64 64 64 64 63 62 63 64 64 65 65 64 63 63 62 62 61 61 61 62 61 61 62 61 61 59 59 58 59 59 60 60 59 60 59 59
48 48 47 47 49 50 50 50 47 41 39 40 43 40 38 39 39 39 40 42 42 41 41 42 43 43 44 44 44 43 43 45 46 46 48 51 53 54 54 56 56 57 60 59 59 61 60 60 61 61 62 63 64 64 64 64 65 64 64 64 64 65 64 64 63 63 63 63 64 63 64 65 64 64 64 63 62 62 62 61 61 61 61 61 61 61 60 60 59 59 60 60 60 60 60 60 60
50 49 48 45 46 47 49 51 49 43 40 39 41 35 36 37 38 39 42 42 41 40 39 38 38 41 43 42 43 43 44 45 45 46 46 47 48 50 53 53 53 54 54 57 59 58 58 60 62 63 62 62 63 64 64 64 65 64 64 64 64 64 64 64 64 64 64 63 63 64 64 64 64 64 64 63 63 62 61 61 61 61 61 61 61 61 60 61 60 60 60 60 59 60 60 60 59
45 48 48 44 42 43 48 50 50 44 44 46 41 35 33 34 36 41 43 42 40 39 38 37 37 39 43 43 42 43 45 45 45 46 46 45 44 45 46 48 48 50 52 54 55 56 55 57 58 57 61 62 63 63 64 64 65 65 65 65 64 65 64 64 64 64 64 64 63 63 64 64 64 63 64 63 63 62 61 61 61 61 61 61 60 60 60 61 60 60 60 60 60 60 60 60 59
49 43 40 45 42 42 46 47 49 47 44 44 41 37 35 38 42 43 45 45 40 39 38 37 37 43 43 43 42 46 47 48 45 42 43 41 40 41 39 39 42 42 43 44 47 51 53 55 57 59 59 60 62 63 63 64 64 64 65 64 65 65 65 65 65 64 64 64 64 63 64 64 64 64 64 64 63 63 62 61 61 61 61 61 61 61 61 60 60 60 60 60 59 59 60 60 60
46 42 39 40 43 43 43 45 46 46 47 44 41 38 37 35 42 43 44 44 45 42 41 40 38 39 46 49 50 48 49 46 43 40 36 35 34 34 35 34 34 35 36 37 39 45 48 49 49 49 50 57 60 60 63 64 64 64 64 65 65 65 65 65 66 65 65 64 64 64 64 63 63 64 64 64 64 63 62 62 61 61 61 61 61 61 61 61 61 61 60 60 60 60 60 60 60
40 43 40 41 40 44 42 43 44 44 44 46 43 39 38 41 42 44 45 44 42 40 42 43 45 47 47 50 52 48 44 43 39 35 32 32 33 33 33 38 34 33 34 35 36 37 40 41 42 44 45 46 48 55 61 62 63 65 64 65 64 65 65 65 65 65 65 65 65 65 65 65 64 64 64 64 64 63 63 63 62 62 62 62 61 61 62 62 61 61 60 61 60 60 60 60 60
37 39 40 41 41 43 42 41 42 43 46 44 43 41 38 42 43 43 43 45 43 42 44 45 48 50 50 50 47 42 38 34 32 32 33 32 33 33 33 33 34 34 34 35 36 37 37 38 40 40 41 42 44 47 51 56 61 62 62 64 64 65 65 65 65 65 65 64 64 65 65 65 64 65 65 65 64 64 64 63 63 63 63 63 62 62 62 62 61 61 61 61 61 61 60 60 60
36 38 39 40 39 40 41 45 46 45 45 43 44 41 39 39 42 43 44 44 41 40 41 45 50 50 50 50 47 36 31 31 33 34 33 33 33 33 33 33 34 34 34 35 36 36 37 38 39 40 41 41 42 44 48 52 55 59 61 61 61 63 64 63 64 64 64 64 64 64 64 65 66 64 64 64 64 64 64 64 64 63 63 63 62 62 62 62 61 62 62 61 61 61 61 61 60
38 39 40 40 39 41 42 46 50 48 45 44 43 43 41 39 42 43 44 43 42 43 46 47 50 50 50 47 43 31 28 29 32 33 34 34 34 33 33 34 33 33 33 33 33 34 35 36 38 38 39 40 41 43 45 47 50 53 57 59 59 60 60 62 63 64 65 65 65 65 65 65 65 66 66 66 65 64 64 64 64 64 64 63 63 62 62 62 62 62 62 62 61 61 61 61 61
42 42 39 38 39 39 42 45 49 48 44 44 45 45 45 40 44 48 48 46 47 47 47 49 48 46 45 43 37 30 29 30 31 31 33 33 33 33 32 32 34 32 32 30 30 31 32 34 35 36 37 39 40 42 43 44 46 49 52 54 56 60 60 60 62 63 64 64 64 65 64 64 64 64 64 65 66 66 65 65 65 64 64 64 63 63 63 61 62 62 62 62 61 61 60 61 60
40 41 41 40 42 43 45 46 48 49 46 44 45 44 45 46 47 47 47 46 46 47 47 46 44 38 30 28 29 31 31 29 29 28 28 28 30 31 31 30 30 29 29 29 28 28 28 31 34 35 35 37 38 40 42 42 43 45 47 50 50 51 51 49 49 48 51 53 57 62 64 64 64 64 64 64 64 65 65 64 64 64 64 64 63 63 63 62 62 62 62 61 61 61 61 61 60
38 39 39 38 41 40 38 45 46 48 47 44 44 43 45 47 44 44 45 45 42 41 37 33 32 31 29 27 28 29 29 29 27 25 24 24 24 24 25 26 26 27 28 28 27 25 25 29 30 33 33 34 36 38 41 40 41 42 44 45 48 50 49 48 47 46 47 48 49 50 52 57 63 65 65 64 65 65 65 65 65 65 64 64 64 63 63 63 63 63 62 62 62 60 60 60 61
37 40 40 39 40 41 42 42 46 45 45 46 44 43 44 45 40 41 44 44 41 42 40 39 34 31 30 30 30 30 28 27 26 23 22 21 20 21 22 23 22 24 24 24 25 23 24 25 27 30 31 32 34 37 37 38 37 38 40 41 42 44 44 44 47 48 48 47 47 47 47 49 51 54 59 62 63 63 64 65 64 64 64 64 64 64 63 63 62 63 63 62 62 61 60 60 60
36 39 40 38 40 41 42 43 43 41 40 43 43 35 34 36 36 38 39 39 37 39 36 35 35 29 28 28 28 28 29 27 24 22 20 18 18 19 20 20 22 23 22 21 23 24 22 22 25 27 28 30 32 33 34 36 34 35 37 38 39 40 40 40 41 44 46 48 46 47 47 48 48 49 50 50 53 55 58 62 64 64 64 64 64 64 63 63 63 63 63 63 62 62 61 60 59
32 36 40 41 41 41 41 41 41 36 33 40 43 34 29 35 34 35 35 34 33 34 31 30 29 26 26 25 25 25 24 24 24 22 21 20 19 19 19 19 21 22 21 22 22 23 20 21 23 24 26 28 31 29 28 33 30 31 33 33 35 37 38 39 39 40 42 43 44 45 45 45 44 45 46 46 47 48 51 53 55 60 63 64 63 64 64 63 63 63 62 63 62 62 62 60 60
31 41 40 40 40 40 39 39 38 34 38 40 42 41 30 29 32 35 35 33 33 30 28 27 24 23 23 22 21 22 22 21 20 19 19 20 19 19 19 20 20 21 22 22 22 22 22 22 21 22 25 28 28 30 29 30 30 30 29 29 31 32 34 35 36 38 40 40 40 40 40 40 40 41 41 42 42 42 46 48 51 54 57 61 63 64 64 64 64 64 63 63 62 62 62 61 60
37 40 41 37 39 39 38 36 36 36 34 32 37 39 32 29 33 37 35 29 28 27 26 25 23 22 20 20 19 19 19 17 16 16 16 16 16 17 17 18 19 21 22 23 23 23 23 22 21 21 22 24 25 27 30 30 31 30 29 28 28 28 29 30 30 33 37 38 39 41 41 40 40 39 40 41 41 41 44 45 47 47 50 54 57 61 63 63 63 63 63 63 62 63 62 62 61
39 42 43 41 40 38 37 35 34 33 33 30 33 34 29 28 32 33 35 28 26 26 24 23 22 21 20 19 18 17 16 17 17 15 15 16 15 16 17 18 18 19 21 24 23 24 23 22 21 22 21 23 24 24 27 29 29 30 29 29 29 28 27 25 26 28 27 26 32 38 42 42 42 40 40 42 41 40 42 43 43 43 46 50 53 55 56 59 61 62 63 63 63 62 63 62 61
41 41 41 40 38 37 36 35 34 30 26 30 34 34 32 25 29 32 32 30 28 25 23 22 21 20 18 17 16 16 15 17 17 16 16 17 17 17 18 18 18 19 20 20 21 21 20 20 19 20 20 22 23 23 24 26 26 26 28 28 29 29 27 26 27 26 29 26 25 25 32 40 44 44 44 45 45 41 42 44 43 42 43 44 44 45 49 54 57 60 61 62 62 62 62 62 61
40 39 37 35 33 35 30 28 30 21 20 32 34 33 34 23 26 30 35 33 28 24 22 21 19 19 18 17 16 16 16 18 18 17 18 18 18 17 17 17 17 18 19 19 19 19 19 18 18 18 19 20 22 23 24 25 25 26 26 26 27 29 27 29 28 29 30 29 28 28 28 29 30 33 36 43 45 41 41 43 42 41 40 41 42 44 45 47 50 54 58 61 61 62 62 61 61
39 37 35 28 27 28 24 27 22 20 21 32 33 30 25 23 28 26 25 24 25 24 22 20 19 17 17 16 16 17 19 18 17 17 18 18 18 17 17 17 18 18 19 19 21 20 19 18 18 18 17 18 19 20 22 23 25 26 26 25 25 27 28 27 27 27 27 31 30 31 31 31 32 32 31 33 40 41 39 40 40 40 40 40 41 42 43 44 46 47 51 55 58 60 61 61 60
36 34 31 25 22 20 20 23 23 26 29 33 31 29 24 27 28 30 24 24 24 23 21 20 18 16 16 17 17 17 20 19 18 18 18 18 17 18 17 17 17 18 18 19 19 20 20 19 19 19 18 19 20 19 18 19 23 26 25 25 25 26 25 25 25 25 27 29 30 29 30 31 31 30 30 32 34 34 34 37 38 37 37 39 40 40 41 42 43 44 46 49 53 57 60 60 60
31 38 29 26 23 17 14 19 18 21 27 31 33 25 22 21 25 31 25 24 23 22 21 20 20 19 19 18 18 18 18 19 19 19 19 18 19 18 18 17 17 17 17 19 19 19 19 19 19 18 18 19 20 20 19 18 20 22 22 23 24 25 26 25 25 27 26 27 25 26 29 30 31 30 31 32 33 31 33 34 34 37 37 37 37 38 40 40 41 41 42 45 47 50 53 56 58
31 35 34 28 26 28 20 21 21 25 27 27 26 24 26 25 29 28 25 24 21 20 19 19 19 19 20 19 19 18 18 18 20 19 19 19 19 18 19 19 19 19 18 19 18 19 19 19 19 18 19 19 19 21 19 19 20 21 21 21 22 24 26 25 25 25 25 26 24 25 26 27 28 28 29 31 31 31 31 31 32 35 36 36 35 36 37 38 39 39 40 42 43 47 48 49 52
31 32 26 31 31 28 24 23 25 26 25 23 24 22 24 24 25 25 24 22 20 19 18 18 18 19 20 20 19 18 19 19 20 20 19 18 18 18 20 19 19 19 19 19 20 19 19 19 19 18 18 19 18 20 19 18 19 20 20 21 22 22 22 22 22 23 23 24 24 24 25 27 28 28 30 31 31 30 30 30 31 32 34 35 35 35 36 36 37 37 38 39 40 42 43 44 45
32 27 31 35 31 30 23 17 19 17 16 23 23 20 20 20 18 23 21 20 18 18 18 18 19 19 18 19 19 19 19 19 19 19 19 19 19 18 19 20 19 19 19 19 20 20 21 21 19 19 19 20 19 19 19 18 18 19 20 20 21 22 22 22 22 22 22 22 22 22 23 25 26 28 29 30 30 29 30 30 30 32 32 33 35 35 35 36 36 35 35 36 38 39 41 42 44
35 33 35 28 19 18 20 18 11 11 11 21 21 21 20 22 20 20 20 18 17 17 17 17 17 17 18 18 19 19 20 21 21 20 20 20 18 18 18 18 18 20 20 20 21 21 21 20 20 20 19 20 20 20 20 18 18 20 21 19 20 21 22 22 23 22 21 21 20 21 21 23 24 26 26 28 28 28 29 30 31 31 31 32 33 33 34 35 36 36 36 36 36 37 39 40 41
36 37 31 31 26 25 19 21 21 18 11 18 21 22 21 24 20 20 20 18 17 17 17 16 16 17 17 18 19 19 20 20 20 20 20 19 16 16 17 18 19 20 21 22 22 22 20 21 20 20 20 20 19 19 20 18 19 19 19 18 19 21 22 22 22 21 22 21 21 21 21 21 22 23 24 26 26 27 28 29 31 31 31 31 30 31 33 34 36 35 36 36 37 38 39 39 39
29 28 25 24 22 29 26 24 21 16 14 17 21 19 22 21 20 20 19 18 18 17 17 18 18 18 18 19 20 20 20 21 20 19 17 15 13 13 16 18 21 21 22 21 22 22 22 22 21 20 20 19 20 19 20 19 19 19 18 18 18 19 20 21 21 21 21 21 20 20 20 21 23 22 23 24 24 25 26 28 30 31 31 30 31 31 32 33 33 34 34 36 37 39 39 38 38
28 26 27 28 24 21 13 14 22 19 15 14 17 19 18 19 19 19 18 18 18 19 18 18 18 18 20 21 20 20 21 19 18 16 13 14 13 13 15 16 20 20 20 19 20 21 22 21 22 21 21 20 20 20 20 19 18 18 17 18 18 18 19 20 19 20 22 20 19 19 19 21 21 22 23 23 23 24 25 27 28 29 30 30 31 30 30 31 31 32 32 35 37 37 35 34 34